• In Uzbekistan
  • List of Countries
  • For 7 days
  • Water Temperature
  • Satellite Maps
  • Weather Map
  • Weather Widgets
  • user-avatar
    Login

    Hourly Weather Port-of-Spejn

    Today, 10 December, Monday

    Time Temperature Precipitation Wind Pressure Humidity
    00:00 +27°C° 0.1 mm 6 mps 758 mmHg 82%
    01:00 +26°C° 0.1 mm 6 mps 758 mmHg 83%
    02:00 +26°C° 0.1 mm 6 mps 757 mmHg 85%
    03:00 +26°C° 0.1 mm 6 mps 758 mmHg 85%
    04:00 +26°C° 0.1 mm 6 mps 758 mmHg 85%
    05:00 +26°C° 0.1 mm 6 mps 758 mmHg 84%
    06:00 +26°C° 0.1 mm 6 mps 758 mmHg 82%
    07:00 +27°C° 0.1 mm 7 mps 759 mmHg 79%
    08:00 +27°C° 0.1 mm 7 mps 759 mmHg 76%
    09:00 +28°C° 0 mm 7 mps 759 mmHg 74%
    10:00 +29°C° 0 mm 6 mps 759 mmHg 71%
    11:00 +29°C° 0 mm 6 mps 759 mmHg 69%
    12:00 +29°C° 0.1 mm 6 mps 759 mmHg 69%
    13:00 +29°C° 0.1 mm 6 mps 758 mmHg 69%
    14:00 +29°C° 0.1 mm 6 mps 758 mmHg 69%
    15:00 +29°C° 0.1 mm 6 mps 758 mmHg 71%
    16:00 +29°C° 0.1 mm 6 mps 757 mmHg 73%
    17:00 +28°C° 0.1 mm 7 mps 757 mmHg 74%
    18:00 +28°C° 0 mm 7 mps 757 mmHg 75%
    19:00 +28°C° 0 mm 7 mps 758 mmHg 76%
    20:00 +28°C° 0 mm 7 mps 758 mmHg 77%
    21:00 +28°C° 0 mm 7 mps 758 mmHg 77%
    22:00 +28°C° 0 mm 7 mps 758 mmHg 77%
    23:00 +28°C° 0 mm 7 mps 759 mmHg 78%

    Tomorrow, 11 December, Tuesday

    Time Temperature Precipitation Wind Pressure Humidity
    00:00 +28°C° 0 mm 6 mps 758 mmHg 79%
    01:00 +28°C° 0 mm 6 mps 758 mmHg 80%
    02:00 +27°C° 0 mm 6 mps 758 mmHg 81%
    03:00 +27°C° 0 mm 6 mps 758 mmHg 81%
    04:00 +27°C° 0 mm 6 mps 758 mmHg 82%
    05:00 +27°C° 0 mm 5 mps 758 mmHg 83%
    06:00 +27°C° 0.2 mm 6 mps 758 mmHg 80%
    07:00 +28°C° 0.2 mm 6 mps 759 mmHg 78%
    08:00 +28°C° 0.2 mm 6 mps 759 mmHg 75%
    09:00 +29°C° 0.1 mm 6 mps 760 mmHg 73%
    10:00 +30°C° 0.1 mm 6 mps 760 mmHg 71%
    11:00 +30°C° 0.1 mm 6 mps 760 mmHg 68%
    12:00 +30°C° 0.1 mm 6 mps 759 mmHg 69%
    13:00 +30°C° 0.1 mm 6 mps 758 mmHg 69%
    14:00 +30°C° 0.1 mm 6 mps 758 mmHg 70%
    15:00 +30°C° 0.1 mm 6 mps 757 mmHg 73%
    16:00 +29°C° 0.1 mm 6 mps 757 mmHg 75%
    17:00 +29°C° 0.1 mm 6 mps 757 mmHg 78%
    18:00 +28°C° 0.1 mm 6 mps 757 mmHg 80%
    19:00 +28°C° 0.1 mm 6 mps 758 mmHg 82%
    20:00 +28°C° 0.1 mm 6 mps 758 mmHg 84%
    21:00 +28°C° 0.1 mm 6 mps 758 mmHg 83%
    22:00 +28°C° 0.1 mm 6 mps 759 mmHg 82%
    23:00 +28°C° 0.1 mm 6 mps 759 mmHg 81%

    Day after tomorrow, 12 December, Wednesday

    Time Temperature Precipitation Wind Pressure Humidity
    00:00 +28°C° 0 mm 6 mps 758 mmHg 80%
    01:00 +28°C° 0 mm 6 mps 758 mmHg 80%
    02:00 +28°C° 0 mm 6 mps 758 mmHg 80%
    03:00 +28°C° 0 mm 5 mps 757 mmHg 80%
    04:00 +28°C° 0 mm 5 mps 757 mmHg 80%
    05:00 +28°C° 0 mm 5 mps 757 mmHg 80%
    06:00 +28°C° 0 mm 5 mps 758 mmHg 78%
    07:00 +29°C° 0 mm 5 mps 758 mmHg 77%
    08:00 +29°C° 0 mm 5 mps 759 mmHg 75%
    09:00 +30°C° 0 mm 5 mps 759 mmHg 73%
    10:00 +30°C° 0 mm 5 mps 759 mmHg 71%
    11:00 +32°C° 0 mm 4 mps 759 mmHg 70%
    12:00 +30°C° 0.1 mm 5 mps 758 mmHg 72%
    13:00 +30°C° 0.1 mm 5 mps 757 mmHg 73%
    14:00 +30°C° 0.1 mm 5 mps 756 mmHg 75%
    15:00 +29°C° 0.1 mm 5 mps 756 mmHg 77%
    16:00 +29°C° 0.1 mm 6 mps 756 mmHg 79%
    17:00 +28°C° 0.1 mm 6 mps 755 mmHg 81%
    18:00 +28°C° 0.1 mm 6 mps 756 mmHg 82%
    19:00 +28°C° 0.1 mm 6 mps 756 mmHg 84%
    20:00 +28°C° 0.1 mm 6 mps 757 mmHg 85%
    21:00 +28°C° 0.4 mm 6 mps 757 mmHg 85%
    22:00 +28°C° 0.4 mm 6 mps 757 mmHg 86%
    23:00 +28°C° 0.4 mm 7 mps 757 mmHg 86%

    13 December, Thursday

    Time Temperature Precipitation Wind Pressure Humidity
    00:00 +28°C° 0.7 mm 7 mps 757 mmHg 86%
    01:00 +28°C° 0.7 mm 7 mps 757 mmHg 86%
    02:00 +28°C° 0.7 mm 7 mps 756 mmHg 85%
    03:00 +28°C° 0.2 mm 7 mps 756 mmHg 84%
    04:00 +28°C° 0.2 mm 7 mps 756 mmHg 83%
    05:00 +28°C° 0.2 mm 6 mps 756 mmHg 82%
    06:00 +28°C° 0.1 mm 6 mps 757 mmHg 79%
    07:00 +29°C° 0.1 mm 6 mps 757 mmHg 76%
    08:00 +29°C° 0.1 mm 6 mps 758 mmHg 73%
    09:00 +30°C° 0 mm 6 mps 758 mmHg 71%
    10:00 +30°C° 0 mm 6 mps 758 mmHg 69%
    11:00 +32°C° 0 mm 6 mps 758 mmHg 67%
    12:00 +32°C° 0 mm 6 mps 758 mmHg 67%
    13:00 +32°C° 0 mm 6 mps 757 mmHg 67%
    14:00 +32°C° 0 mm 6 mps 756 mmHg 67%
    15:00 +30°C° 0 mm 6 mps 756 mmHg 70%
    16:00 +29°C° 0 mm 6 mps 756 mmHg 74%
    17:00 +29°C° 0 mm 6 mps 756 mmHg 78%
    18:00 +28°C° 0.1 mm 6 mps 756 mmHg 79%
    19:00 +28°C° 0.1 mm 6 mps 757 mmHg 81%
    20:00 +28°C° 0.1 mm 6 mps 757 mmHg 83%
    21:00 +28°C° 0.1 mm 7 mps 757 mmHg 82%
    22:00 +28°C° 0.1 mm 7 mps 757 mmHg 82%
    23:00 +28°C° 0.1 mm 7 mps 757 mmHg 82%

    14 December, Friday

    Time Temperature Precipitation Wind Pressure Humidity
    00:00 +27°C° 0.1 mm 6 mps 757 mmHg 83%
    01:00 +27°C° 0.1 mm 6 mps 757 mmHg 84%
    02:00 +27°C° 0.1 mm 6 mps 756 mmHg 85%
    03:00 +27°C° 0.1 mm 6 mps 756 mmHg 86%
    04:00 +27°C° 0.1 mm 6 mps 757 mmHg 86%
    05:00 +26°C° 0.1 mm 6 mps 757 mmHg 87%
    06:00 +27°C° 0.3 mm 6 mps 757 mmHg 86%
    07:00 +27°C° 0.3 mm 7 mps 758 mmHg 85%
    08:00 +28°C° 0.3 mm 7 mps 758 mmHg 84%
    09:00 +28°C° 0.2 mm 7 mps 758 mmHg 78%
    10:00 +28°C° 0.2 mm 7 mps 759 mmHg 73%
    11:00 +29°C° 0.2 mm 6 mps 759 mmHg 67%
    12:00 +29°C° 0.1 mm 6 mps 758 mmHg 66%
    13:00 +30°C° 0.1 mm 6 mps 757 mmHg 65%
    14:00 +30°C° 0.1 mm 6 mps 757 mmHg 64%
    15:00 +30°C° 0 mm 6 mps 757 mmHg 68%
    16:00 +29°C° 0 mm 6 mps 756 mmHg 72%
    17:00 +29°C° 0 mm 6 mps 756 mmHg 75%
    18:00 +28°C° 0 mm 6 mps 757 mmHg 77%
    19:00 +28°C° 0 mm 7 mps 757 mmHg 78%
    20:00 +28°C° 0 mm 7 mps 757 mmHg 80%
    21:00 +28°C° 0 mm 7 mps 758 mmHg 80%
    22:00 +28°C° 0 mm 7 mps 758 mmHg 81%
    23:00 +27°C° 0 mm 7 mps 758 mmHg 82%

    15 December, Saturday

    Time Temperature Precipitation Wind Pressure Humidity
    00:00 +27°C° 0.1 mm 7 mps 757 mmHg 82%
    01:00 +27°C° 0.1 mm 7 mps 757 mmHg 83%
    02:00 +27°C° 0.1 mm 6 mps 757 mmHg 84%
    03:00 +27°C° 0 mm 6 mps 757 mmHg 84%
    04:00 +27°C° 0 mm 6 mps 757 mmHg 84%
    05:00 +26°C° 0 mm 6 mps 758 mmHg 84%
    06:00 +27°C° 0 mm 6 mps 758 mmHg 81%
    07:00 +28°C° 0 mm 7 mps 759 mmHg 78%
    08:00 +28°C° 0 mm 7 mps 759 mmHg 74%
    09:00 +29°C° 0 mm 6 mps 759 mmHg 73%
    10:00 +29°C° 0 mm 6 mps 759 mmHg 71%
    11:00 +29°C° 0 mm 6 mps 759 mmHg 70%
    12:00 +30°C° 0 mm 6 mps 759 mmHg 67%
    13:00 +30°C° 0 mm 6 mps 758 mmHg 65%
    14:00 +30°C° 0 mm 5 mps 757 mmHg 62%
    15:00 +30°C° 0 mm 6 mps 757 mmHg 66%
    16:00 +29°C° 0 mm 6 mps 757 mmHg 69%
    17:00 +28°C° 0 mm 6 mps 757 mmHg 72%
    18:00 +28°C° 0 mm 6 mps 757 mmHg 74%
    19:00 +28°C° 0 mm 6 mps 758 mmHg 76%
    20:00 +27°C° 0 mm 6 mps 758 mmHg 78%
    21:00 +27°C° 0.1 mm 6 mps 758 mmHg 80%
    22:00 +27°C° 0.1 mm 6 mps 758 mmHg 81%
    23:00 +27°C° 0.1 mm 6 mps 759 mmHg 82%
    Show more